Content
SEND FEEDBACK

Daily
Averages
Monthly
Summary
United States of America

MARBLEHEAD, OHIO


Home > North America > United States > Ohio
Elevation: 630 feet     Latitude: 41 30N     Longitude: 082 42W

WEATHER
 
SELECT A DAY
Number of Records: 180,309;   Date Range: 10/8/98 - 7/26/14
 
SHARE

PRINT THIS DATA

[ ← Previous Day ]
WEATHER ALMANAC - MAY 4, 2014
[ Next Day → ]
[ °C ]   °F
Weather ElementAverageHighLow
Temperature53.1 °F63 °F (12:53 pm)43 °F (11:53 pm)
Dewpoint37.5 °F44.1 °F (7:53 am)28.9 °F (3:53 pm)
Humidity57.7 %77 % (4:53 am)31 % (12:53 pm)
Barometer29.94 in30.11 in (11:53 pm)29.84 in (4:53 am)
Wind Speed9 mph25.3 mph (3:53 pm)
Wind Gust32.2 mph (2:53 pm)
Weather ElementAverage
Visibility10 mi
Wind DirectionSE (140 °)

Weather ElementTotal
Precipitation0.01 in
Heating Degree Days12 (Base 65)
Growing Degree Days3 (Base 50)
Averaged from 23 records on May 4, 2014
WEATHER CONDITIONS BREAKOUT
WIND DIRECTION BREAKOUT
WEATHER BY HOUR - MAY 4, 2014
[ °C ]   °F
Local TimeTemperatureDewpointHumidityBarometerVisibilityWind DirectionWind SpeedGust SpeedPrecipitationEventsConditions
1:53 AM52.0 °F42.1 °F69 %29.87 in10.0 miWNW (290°)3.5 mph0.00 inRainLight Rain
2:53 AM51.1 °F43.0 °F74 %29.86 in10.0 miSSW (210°)3.5 mph0.01 inRainLight Rain
3:53 AM50.0 °F42.1 °F74 %29.85 in10.0 miCalm0.00 inOvercast
4:53 AM50.0 °F43.0 °F77 %29.84 in10.0 miSouth (190°)3.5 mphOvercast
5:53 AM50.0 °F43.0 °F77 %29.84 in10.0 miSW (220°)6.9 mphOvercast
6:53 AM51.1 °F42.1 °F71 %29.84 in10.0 miSW (220°)8.1 mphOvercast
7:53 AM53.1 °F44.1 °F71 %29.85 in10.0 miWSW (250°)3.5 mphOvercast
8:53 AM53.1 °F39.9 °F61 %29.88 in10.0 miNE (40°)11.5 mphOvercast
9:53 AM54.0 °F37.0 °F53 %29.88 in10.0 miENE (70°)12.7 mphOvercast
10:53 AM55.9 °F36.0 °F47 %29.88 in10.0 miEast (90°)9.2 mphMostly Cloudy
11:53 AM57.9 °F37.0 °F46 %29.90 in10.0 miVariable3.5 mphPartly Cloudy
12:53 PM63.0 °F32.0 °F31 %29.88 in10.0 miNW (310°)15.0 mph26.5 mphPartly Cloudy
1:53 PM63.0 °F37.0 °F38 %29.90 in10.0 miNW (320°)18.4 mph31.1 mphScattered Clouds
2:53 PM59.0 °F30.9 °F35 %29.93 in10.0 miNNW (330°)18.4 mph32.2 mph0.00 inClear
3:53 PM59.0 °F28.9 °F32 %29.95 in10.0 miNorth (350°)25.3 mph32.2 mph0.00 inClear
4:53 PM55.0 °F39.9 °F57 %29.98 in10.0 miNNE (20°)18.4 mph32.2 mph0.00 inClear
5:53 PM55.9 °F37.0 °F49 %30.00 in10.0 miNNE (30°)13.8 mphClear
6:53 PM54.0 °F35.1 °F49 %30.01 in10.0 miNNE (20°)12.7 mphClear
7:53 PM52.0 °F33.1 °F49 %30.03 in10.0 miNNE (30°)8.1 mphClear
8:53 PM46.9 °F35.1 °F63 %30.05 in10.0 miNE (40°)4.6 mphClear
9:53 PM46.9 °F35.1 °F63 %30.08 in10.0 miCalmClear
10:53 PM45.0 °F35.1 °F68 %30.10 in10.0 miEast (80°)3.5 mphClear
11:53 PM43.0 °F35.1 °F74 %30.11 in10.0 miESE (110°)3.5 mphClear
Hourly data recorded from KLPR, located miles away from Marblehead, Ohio







STORIES FROM OUR PARTNERS